Total_Precipitation_Accumulation
1.25 1.17 1.09 1.05 0.92 0.85 0.80 0.85 0.84 0.77 0.72 0.66 0.55 0.46 0.44 0.44 0.40 0.41 0.41 0.41 0.47 0.62 0.84 0.97 0.98 0.94 0.92 0.98 0.97 0.91 0.85 0.78 0.70 0.63 0.60 0.60 0.56 0.55 0.58 0.61 0.64 0.67 0.69
1.42 1.35 1.19 1.10 1.02 0.93 0.87 0.92 0.94 0.87 0.83 0.74 0.66 0.57 0.51 0.50 0.43 0.40 0.41 0.44 0.44 0.53 0.73 0.97 1.13 1.20 1.21 1.26 1.21 1.11 0.99 0.90 0.83 0.78 0.74 0.72 0.65 0.62 0.64 0.62 0.63 0.65 0.66
1.52 1.51 1.39 1.19 1.07 1.08 1.04 1.03 1.07 1.07 0.97 0.83 0.75 0.68 0.61 0.55 0.49 0.45 0.44 0.44 0.43 0.42 0.55 0.80 1.05 1.18 1.27 1.36 1.40 1.33 1.17 1.03 0.92 0.85 0.82 0.83 0.79 0.74 0.71 0.71 0.72 0.73 0.73
1.60 1.66 1.56 1.43 1.31 1.29 1.27 1.20 1.12 1.04 0.95 0.84 0.76 0.72 0.68 0.64 0.58 0.57 0.57 0.49 0.44 0.39 0.44 0.58 0.74 0.95 1.14 1.26 1.39 1.51 1.34 1.19 1.05 0.94 0.91 0.95 0.97 0.89 0.86 0.87 0.85 0.84 0.84
1.81 1.83 1.76 1.64 1.59 1.53 1.49 1.39 1.26 1.12 1.00 0.89 0.83 0.82 0.81 0.75 0.71 0.66 0.61 0.53 0.50 0.48 0.48 0.49 0.52 0.64 0.80 1.04 1.24 1.47 1.55 1.44 1.24 1.12 1.01 0.97 0.97 0.98 1.01 1.04 1.04 1.02 1.04
2.17 2.05 2.01 1.91 1.84 1.72 1.63 1.59 1.47 1.31 1.15 1.08 1.03 0.94 0.87 0.80 0.79 0.75 0.69 0.63 0.58 0.57 0.61 0.62 0.61 0.59 0.64 0.81 1.10 1.34 1.54 1.63 1.48 1.25 1.12 1.05 1.06 1.08 1.15 1.21 1.26 1.30 1.31
2.46 2.32 2.15 2.15 2.07 1.90 1.71 1.68 1.68 1.56 1.41 1.38 1.33 1.11 0.94 0.85 0.80 0.74 0.77 0.78 0.70 0.64 0.66 0.74 0.79 0.73 0.61 0.62 0.78 1.01 1.24 1.45 1.59 1.54 1.36 1.23 1.20 1.26 1.36 1.46 1.53 1.54 1.53
2.69 2.50 2.32 2.24 2.21 2.14 1.92 1.78 1.81 1.79 1.67 1.62 1.63 1.57 1.37 1.16 0.90 0.78 0.78 0.78 0.77 0.75 0.71 0.70 0.73 0.77 0.74 0.63 0.60 0.71 0.86 1.11 1.43 1.70 1.78 1.66 1.55 1.55 1.63 1.75 1.83 1.88 1.87
2.98 2.78 2.54 2.47 2.41 2.38 2.26 2.09 1.98 1.95 1.91 1.82 1.83 1.98 1.78 1.45 1.09 0.90 0.86 0.84 0.81 0.84 0.84 0.79 0.76 0.76 0.78 0.72 0.67 0.66 0.72 0.88 1.21 1.58 1.90 2.01 1.97 1.98 2.12 2.24 2.28 2.35 2.31
3.04 3.04 2.86 2.63 2.54 2.50 2.43 2.47 2.45 2.31 2.20 2.02 1.88 1.77 1.71 1.54 1.47 1.24 1.00 0.96 0.92 0.87 0.92 0.90 0.85 0.84 0.81 0.81 0.81 0.81 0.83 0.91 1.16 1.58 1.94 2.19 2.31 2.49 2.75 2.87 2.87 2.87 2.72
2.87 3.00 2.98 2.80 2.51 2.38 2.32 2.36 2.43 2.47 2.34 2.15 1.99 1.88 1.77 1.56 1.46 1.49 1.29 1.11 1.07 0.94 0.90 0.95 0.98 0.99 1.01 1.01 0.98 1.03 1.08 1.10 1.33 1.72 2.12 2.47 2.75 2.99 3.24 3.39 3.39 3.32 3.18
2.74 2.76 2.78 2.69 2.55 2.37 2.26 2.28 2.38 2.46 2.48 2.40 2.20 2.00 1.91 1.77 1.53 1.53 1.48 1.32 1.30 1.17 1.03 1.02 1.08 1.13 1.15 1.20 1.20 1.29 1.27 1.34 1.50 1.77 2.19 2.55 2.82 3.01 3.22 3.53 3.68 3.63 3.58
2.64 2.65 2.71 2.63 2.53 2.37 2.29 2.25 2.27 2.26 2.28 2.34 2.29 2.12 1.93 1.77 1.64 1.70 1.74 1.62 1.50 1.36 1.32 1.23 1.13 1.13 1.16 1.21 1.30 1.47 1.36 1.37 1.42 1.60 1.99 2.37 2.45 2.53 2.67 2.91 3.23 3.42 3.47
2.54 2.53 2.63 2.59 2.51 2.43 2.34 2.27 2.21 2.13 2.12 2.13 2.09 2.03 1.91 1.74 1.65 1.69 1.82 1.98 1.95 1.66 1.45 1.37 1.26 1.19 1.19 1.21 1.33 1.49 1.34 1.49 1.45 1.53 1.73 1.93 1.89 1.82 1.93 2.14 2.36 2.65 2.86
2.44 2.37 2.42 2.45 2.41 2.35 2.31 2.26 2.19 2.05 1.97 1.96 1.90 1.84 1.79 1.67 1.59 1.58 1.67 1.88 2.21 2.15 1.73 1.39 1.33 1.28 1.27 1.25 1.39 1.32 1.21 1.48 1.51 1.48 1.50 1.52 1.48 1.46 1.55 1.69 1.87 2.13 2.34
2.33 2.23 2.21 2.25 2.28 2.23 2.20 2.23 2.13 2.00 1.94 1.85 1.79 1.75 1.69 1.62 1.60 1.62 1.68 1.76 1.91 2.08 1.90 1.42 1.24 1.21 1.26 1.27 1.41 1.26 1.23 1.49 1.46 1.43 1.38 1.34 1.34 1.38 1.45 1.58 1.65 1.80 2.05
2.14 2.20 2.13 2.15 2.22 2.24 2.17 2.16 2.14 2.04 1.93 1.82 1.74 1.70 1.65 1.59 1.62 1.59 1.63 1.71 1.77 1.85 1.83 1.43 1.19 1.18 1.28 1.31 1.34 1.26 1.23 1.20 1.16 1.28 1.25 1.23 1.21 1.25 1.35 1.47 1.56 1.64 1.79
1.87 1.94 1.98 2.01 2.03 2.06 2.06 2.03 2.01 1.98 1.93 1.81 1.75 1.74 1.68 1.66 1.75 1.76 1.76 1.75 1.73 1.70 1.70 1.54 1.28 1.19 1.20 1.15 1.13 1.16 1.16 1.16 1.07 1.24 1.22 1.17 1.21 1.25 1.31 1.34 1.39 1.49 1.59
1.74 1.80 1.81 1.90 1.93 1.90 1.94 1.94 1.90 1.90 1.90 1.84 1.78 1.77 1.74 1.74 1.80 1.80 1.77 1.74 1.68 1.63 1.61 1.58 1.41 1.26 1.26 1.20 1.19 1.17 1.15 1.14 1.06 1.15 1.20 1.18 1.21 1.25 1.28 1.33 1.34 1.34 1.38
1.52 1.57 1.62 1.66 1.73 1.77 1.82 1.89 1.94 1.91 1.90 1.87 1.83 1.78 1.72 1.70 1.68 1.65 1.62 1.59 1.58 1.60 1.62 1.63 1.53 1.39 1.32 1.31 1.33 1.37 1.33 1.21 1.15 1.04 1.11 1.10 1.13 1.17 1.19 1.21 1.24 1.24 1.24
1.39 1.45 1.51 1.53 1.55 1.61 1.70 1.79 1.89 1.96 1.96 1.94 1.90 1.81 1.69 1.63 1.56 1.53 1.51 1.47 1.49 1.60 1.67 1.70 1.62 1.49 1.36 1.35 1.39 1.32 1.34 1.31 1.25 1.12 1.08 1.04 1.00 0.97 0.99 1.08 1.16 1.25 1.32
1.39 1.42 1.51 1.57 1.59 1.64 1.86 1.95 1.92 1.93 1.94 1.88 1.79 1.66 1.57 1.54 1.48 1.51 1.53 1.51 1.56 1.70 1.81 1.77 1.63 1.43 1.22 1.14 1.22 1.37 1.48 1.54 1.47 1.14 1.09 1.13 1.07 1.06 0.98 0.97 1.18 1.29 1.38
1.49 1.57 1.60 1.69 1.71 1.73 1.82 1.72 1.76 1.75 1.78 1.77 1.69 1.56 1.47 1.36 1.33 1.22 1.34 1.45 1.47 1.56 1.61 1.56 1.48 1.26 1.16 1.12 1.33 1.58 1.58 1.50 1.27 1.05 1.12 1.26 1.16 1.14 1.06 1.11 1.29 1.26 1.36
1.48 1.62 1.67 1.70 1.70 1.69 1.70 1.58 1.58 1.45 1.44 1.48 1.49 1.47 1.41 1.36 1.29 1.26 1.29 1.36 1.25 1.20 1.21 1.13 1.13 1.14 1.15 1.17 1.36 1.62 1.65 1.63 1.40 1.21 1.19 1.36 1.22 1.17 1.10 1.14 1.28 1.22 1.24
1.37 1.43 1.50 1.53 1.48 1.47 1.49 1.40 1.41 1.31 1.29 1.25 1.23 1.28 1.34 1.29 1.38 1.48 1.42 1.36 1.19 1.05 1.07 1.15 1.21 1.21 1.29 1.30 1.37 1.70 1.89 1.95 1.75 1.39 1.20 1.20 1.11 1.11 1.18 1.22 1.27 1.33 1.29
1.19 1.17 1.18 1.17 1.15 1.14 1.23 1.20 1.21 1.13 1.15 1.13 1.13 1.17 1.31 1.29 1.41 1.51 1.38 1.33 1.23 1.08 1.03 1.02 1.01 1.01 0.99 1.06 1.25 1.43 1.85 2.19 1.91 1.56 1.15 1.21 1.21 1.29 1.60 1.34 1.25 1.28 1.31